Gainesville, FL

6:02 AM EST on December 14, 2019 (GMT -0500)
Gainesville Regional

Weather History for KGNV - October, 2019

Change the Weather History Date:

Saturday, October 26, 2019

  Actual Average Record
Temperature  
Mean Temperature 80 °F 68 °F  
Max Temperature 89 °F 79 °F 92 °F (2010)
Min Temperature 70 °F 57 °F 36 °F (1903)
Degree Days  
Heating Degree Days 0 2  
Month to date heating degree days 0 16  
Since 1 July heating degree days 0 16  
Cooling Degree Days 15 5  
Month to date cooling degree days 274 191  
Year to date cooling degree days 3290 2531  
Growing Degree Days 30 (Base 50)    
Moisture  
Dew Point 71 °F    
Average Humidity 73    
Maximum Humidity 94    
Minimum Humidity 52    
Precipitation  
Precipitation 0.03 in 0.07 in 3.45 in (1921)
Month to date precipitation 3.51 2.55  
Year to date precipitation 41.75 42.54  
Snow  
Snow 0.00 in 0.00 in 0.00 in ()
Month to date snowfall 0.0 0.0  
Since 1 July snowfall 0.0 0.0  
Since 1 September snowfall 0.0 0.0  
Snow Depth 0.00 in    
Sea Level Pressure  
Sea Level Pressure 29.96 in    
Wind  
Wind Speed 8 mph (SE)    
Max Wind Speed 17 mph    
Max Gust Speed 24 mph    
Visibility 10 miles    
Events Rain , Thunderstorm    
T = Trace of Precipitation, MM = Missing Value Source: NWS Daily Summary

Daily Weather History Graph

Daily Weather History Graph

Search for Another Location

Airport or City:

Astronomy

Oct. 26, 2019 Rise Set
Actual Time 7:37 AM EDT 6:47 PM EDT
Civil Twilight 7:13 AM EDT 7:12 PM EDT
Nautical Twilight 6:45 AM EDT 7:40 PM EDT
Astronomical Twilight 6:17 AM EDT 8:07 PM EDT
Moon 5:46 AM EDT (10/26) 6:10 PM EDT (10/26)
Length of Visible Light 11h 58m
Length of Day
11h 09m
Waning Crescent, 3% of the Moon is Illuminated
Oct 26
Waning Crescent
Oct 27
New
Nov 4
First Quarter
Nov 12
Full
Nov 19
Last Quarter

Hourly Weather History & Observations

Time (EDT) Temp. Heat Index Dew Point Humidity Pressure Visibility Wind Dir Wind Speed Gust Speed Precip Events Conditions
12:53 AM 73.0 °F - 69.1 °F 87% 30.04 in 10.0 mi East 6.9 mph - N/A   Clear
1:53 AM 73.0 °F - 68.0 °F 84% 30.03 in 10.0 mi East 8.1 mph - N/A   Clear
2:53 AM 72.0 °F - 68.0 °F 87% 30.02 in 10.0 mi East 5.8 mph - N/A   Clear
3:53 AM 70.0 °F - 66.9 °F 90% 30.00 in 10.0 mi East 5.8 mph - N/A   Clear
4:53 AM 71.1 °F - 68.0 °F 90% 29.99 in 10.0 mi East 5.8 mph - N/A   Clear
5:53 AM 71.1 °F - 68.0 °F 90% 29.98 in 10.0 mi ESE 5.8 mph - N/A   Clear
6:39 AM 71.1 °F - 68.0 °F 90% 29.98 in 10.0 mi ESE 6.9 mph - N/A   Clear
6:53 AM 71.1 °F - 68.0 °F 90% 29.98 in 10.0 mi ESE 6.9 mph - N/A   Clear
7:53 AM 72.0 °F - 69.1 °F 91% 29.98 in 10.0 mi ESE 4.6 mph - N/A   Clear
8:53 AM 75.9 °F - 72.0 °F 87% 29.98 in 10.0 mi ESE 8.1 mph - N/A   Clear
9:19 AM 78.1 °F - 72.0 °F 81% 29.98 in 10.0 mi ESE 15.0 mph - N/A   Mostly Cloudy
9:50 AM 80.6 °F 85.4 °F 73.4 °F 79% 29.98 in 10.0 mi SE 12.7 mph - N/A   Scattered Clouds
9:53 AM 80.1 °F 84.2 °F 73.0 °F 79% 29.98 in 10.0 mi ESE 11.5 mph - N/A   Scattered Clouds
10:34 AM 82.0 °F 86.7 °F 72.0 °F 71% 29.99 in 10.0 mi SE 13.8 mph 19.6 mph N/A   Mostly Cloudy
10:44 AM 82.9 °F 88.0 °F 72.0 °F 69% 29.99 in 10.0 mi SSE 12.7 mph - N/A   Scattered Clouds
10:53 AM 82.9 °F 88.0 °F 72.0 °F 69% 29.99 in 10.0 mi SE 15.0 mph - N/A   Scattered Clouds
11:15 AM 84.0 °F 89.6 °F 72.0 °F 67% 30.00 in 10.0 mi SE 16.1 mph 20.7 mph N/A   Mostly Cloudy
11:34 AM 84.0 °F 89.6 °F 72.0 °F 67% 29.99 in 10.0 mi SE 13.8 mph 21.9 mph N/A   Mostly Cloudy
11:51 AM 80.6 °F 84.6 °F 71.6 °F 74% 30.00 in 10.0 mi SSE 11.5 mph - 0.00 in Rain Light Rain
11:53 AM 82.0 °F 87.4 °F 73.0 °F 74% 29.99 in 10.0 mi SSE 11.5 mph - 0.00 in Rain Light Rain
12:53 PM 84.9 °F 90.7 °F 72.0 °F 65% 29.97 in 10.0 mi SSE 10.4 mph - 0.00 in   Mostly Cloudy
1:53 PM 86.0 °F 91.5 °F 71.1 °F 61% 29.94 in 10.0 mi South 10.4 mph - N/A   Mostly Cloudy
2:53 PM 89.1 °F 94.1 °F 70.0 °F 53% 29.91 in 10.0 mi SSE 13.8 mph 21.9 mph N/A   Clear
3:53 PM 89.1 °F 95.0 °F 71.1 °F 55% 29.89 in 10.0 mi SE 10.4 mph - N/A   Mostly Cloudy
4:53 PM 84.9 °F 89.4 °F 70.0 °F 61% 29.88 in 10.0 mi SE 12.7 mph - N/A   Overcast
5:36 PM 79.0 °F - 73.9 °F 84% 29.90 in 2.5 mi SSW 5.8 mph - 0.02 in Rain Light Rain
5:43 PM 78.1 °F - 73.9 °F 87% 29.90 in 3.0 mi SSW 5.8 mph - 0.02 in Rain Light Rain
5:53 PM 78.1 °F - 73.9 °F 87% 29.89 in 10.0 mi SSW 5.8 mph - 0.02 in Rain Light Rain
6:53 PM 78.1 °F - 75.0 °F 90% 29.92 in 10.0 mi ESE 8.1 mph - 0.00 in   Overcast
7:44 PM 75.0 °F - 73.0 °F 94% 29.94 in 10.0 mi SE 4.6 mph - 0.01 in Thunderstorm Scattered Clouds
7:53 PM 75.0 °F - 73.0 °F 94% 29.93 in 10.0 mi SE 5.8 mph - 0.01 in   Partly Cloudy
8:53 PM 73.9 °F - 72.0 °F 93% 29.94 in 10.0 mi SSE 4.6 mph - N/A   Clear
9:53 PM 73.0 °F - 72.0 °F 96% 29.95 in 10.0 mi SE 4.6 mph - N/A   Clear
10:53 PM 73.0 °F - 72.0 °F 96% 29.96 in 10.0 mi Calm Calm - N/A   Clear
11:53 PM 73.0 °F - 72.0 °F 96% 29.96 in 10.0 mi South 4.6 mph - N/A   Clear